Temperature
19 19 19 19 19 19 19 18 18 18 18 18 18 19 19 18 18 19 18 18 18 18 18 18 18 18 18 18 18 18 18 18 18 18 18 18 18 18 18 18 18 18 18
19 20 19 19 19 19 19 19 19 19 18 18 18 18 18 18 18 18 18 18 18 18 18 18 18 18 18 18 18 18 18 18 18 18 18 18 18 18 18 17 18 18 18
20 19 19 19 19 19 19 19 19 19 18 18 18 18 18 18 18 18 18 18 18 18 18 18 18 18 18 18 18 18 18 18 18 18 18 18 18 18 18 18 18 18 18
20 19 19 19 19 19 19 19 19 19 19 18 18 18 18 18 18 18 18 18 18 18 18 18 18 18 18 18 18 18 18 18 18 18 17 17 18 18 18 18 18 18 17
20 20 20 19 19 19 19 19 18 19 18 18 18 18 18 18 18 18 18 18 18 18 18 18 18 18 18 18 18 18 18 18 18 17 17 17 18 18 18 18 18 17 17
20 19 20 19 19 19 19 19 19 18 18 18 18 18 18 18 18 18 18 18 18 18 18 18 18 18 18 18 18 18 18 18 18 17 17 17 18 18 18 18 17 17 17
20 20 20 20 19 19 19 19 19 19 18 18 18 18 18 18 18 18 18 18 18 18 18 18 18 18 18 18 18 18 18 18 18 17 17 18 18 18 18 17 17 17 17
20 20 20 20 19 19 19 19 19 19 19 19 18 18 18 18 18 18 18 18 18 18 18 18 18 18 18 18 18 18 18 18 18 18 18 18 18 18 18 17 17 17 17
20 20 20 20 19 19 19 19 19 19 19 19 19 18 18 18 18 18 18 18 18 18 18 18 18 18 18 18 18 18 18 18 18 18 18 18 18 18 18 18 17 17 17
21 20 19 19 19 19 19 19 19 19 19 19 18 18 18 18 18 18 18 18 18 18 18 18 18 18 18 18 18 18 18 18 18 18 18 18 18 18 18 18 18 17 17
20 20 20 20 19 19 19 19 19 19 19 19 18 18 18 18 18 18 18 18 18 18 18 18 18 18 18 18 18 18 18 18 18 18 18 18 18 18 18 18 18 17 17
20 20 20 20 20 19 19 19 19 19 19 18 18 18 18 18 18 18 18 18 18 18 18 18 18 18 18 18 18 18 18 18 18 18 18 18 18 18 18 18 18 18 17
21 20 20 20 20 19 19 19 19 18 18 18 18 18 18 18 18 18 18 18 18 18 18 18 18 18 18 18 18 18 18 18 18 18 18 18 18 18 18 18 18 18 18
21 20 20 20 19 19 19 19 19 19 19 18 18 18 18 18 18 18 18 18 18 18 18 18 18 18 18 18 18 18 18 18 18 18 18 18 18 18 18 18 18 18 18
21 20 20 19 19 19 19 19 19 19 19 19 19 18 18 18 18 18 18 18 18 18 18 18 18 18 18 18 18 18 18 18 18 18 18 18 18 18 18 18 18 18 17
20 20 20 19 19 19 19 19 19 19 19 19 19 18 18 18 18 18 18 18 18 18 18 18 18 18 18 18 18 18 18 18 18 18 18 18 18 18 18 18 18 17 17
20 20 20 19 19 19 19 19 19 19 19 19 19 18 18 18 18 18 18 18 18 18 18 18 18 18 18 18 18 18 18 18 18 18 18 18 18 18 18 18 17 17 17
20 20 20 20 19 19 19 19 19 19 19 19 19 18 18 18 18 18 18 18 18 18 18 18 18 18 18 18 18 18 18 18 18 18 18 18 18 18 18 18 18 17 17
20 20 20 20 19 19 19 19 19 19 19 19 19 19 18 18 18 18 18 18 18 18 18 18 18 18 18 18 18 18 18 18 18 18 18 18 18 18 18 18 17 17 17
20 20 20 20 19 19 19 19 19 19 19 19 19 19 18 18 18 18 18 18 18 18 18 18 18 18 18 18 18 18 18 18 18 18 18 18 18 18 18 17 17 17 17
21 20 20 20 19 19 19 19 19 19 19 19 19 19 19 18 18 18 18 18 18 18 18 18 18 18 18 18 18 18 18 18 18 18 18 18 18 18 17 17 17 17 17
21 20 20 20 20 20 20 19 19 19 19 19 19 19 18 18 18 18 18 18 18 18 18 18 18 18 18 18 18 18 18 18 18 18 18 18 18 18 17 17 17 17 17
21 21 20 20 20 20 20 19 19 19 19 19 19 19 19 18 18 18 18 19 18 18 18 18 18 18 18 18 18 18 18 18 18 18 18 18 18 18 17 17 17 17 17
22 21 20 20 20 20 20 20 19 19 19 19 19 19 19 18 18 18 18 18 18 18 18 18 18 18 18 18 18 18 18 18 18 18 18 18 18 18 18 17 17 17 17
22 21 21 20 20 20 20 20 19 19 19 19 19 19 19 18 18 18 18 18 18 18 18 18 18 18 18 18 18 18 18 18 18 18 18 18 18 17 17 17 17 17 17
23 22 21 20 20 20 20 19 19 19 19 19 19 19 19 18 18 18 18 18 18 18 18 18 18 18 18 18 18 18 18 18 18 18 18 18 17 17 17 17 17 17 17
Wind_Speed
11 11 12 12 13 13 14 14 14 15 15 15 16 16 16 15 15 15 15 15 15 15 15 15 14 14 14 15 16 16 16 17 17 17 17 17 17 15 13 13 15 15 16
12 13 14 13 13 13 14 14 14 15 14 14 14 15 15 15 15 15 14 14 14 14 14 14 14 14 14 14 15 15 16 15 15 16 17 16 15 14 12 12 14 15 16
13 14 14 13 13 13 13 13 13 14 13 13 14 14 14 14 14 14 13 13 13 14 14 13 13 13 13 13 13 14 14 14 14 15 15 14 13 14 14 16 17 16 15
13 14 14 13 13 13 13 13 13 13 13 13 13 13 13 13 13 13 13 12 12 13 13 12 12 12 12 12 12 12 12 12 12 13 11 12 12 13 14 15 16 15 14
15 15 14 14 13 12 12 12 12 13 13 12 12 13 13 13 12 12 12 11 11 12 12 12 12 11 11 11 11 11 10 10 10 9 9 13 12 13 14 15 15 14 13
15 15 15 14 13 12 12 12 12 12 12 12 12 12 13 12 12 12 12 11 10 11 11 11 10 10 10 10 10 9 9 9 7 6 11 14 13 14 14 14 14 13 13
14 15 15 14 13 12 12 11 11 11 11 11 12 12 12 12 12 12 11 10 10 10 10 10 9 8 8 9 9 8 7 7 6 5 11 13 14 15 14 13 13 12 12
14 14 14 13 12 12 11 11 11 11 11 11 11 11 11 11 11 11 10 10 9 9 9 9 8 7 7 8 8 7 7 6 5 8 12 13 15 15 14 13 12 12 12
12 12 12 12 11 11 11 11 11 10 10 10 10 10 10 10 10 10 9 9 9 9 9 8 7 7 8 7 6 5 5 5 4 6 11 13 17 16 14 13 12 12 11
9 9 9 11 11 10 10 10 10 10 10 9 9 9 9 10 10 10 10 9 8 8 8 8 7 7 7 6 6 5 5 5 4 5 8 13 18 17 15 14 12 11 11
8 6 6 7 8 8 9 11 10 10 9 9 8 9 9 8 9 9 9 9 8 8 8 8 7 6 6 6 6 6 5 4 3 4 9 16 18 17 15 14 12 12 11
7 6 5 5 6 5 6 8 8 8 9 7 6 6 6 6 7 8 9 9 9 8 8 8 7 7 6 6 8 8 5 5 4 6 10 18 17 16 14 13 13 12 12
7 6 6 6 5 5 4 5 5 6 6 6 5 5 4 5 6 7 7 7 8 9 8 9 8 7 7 6 5 6 5 3 3 6 12 17 16 15 14 13 13 12 12
7 7 7 7 6 5 5 4 5 4 4 4 5 4 4 2 2 4 4 5 6 6 6 6 5 6 5 5 4 3 2 1 3 6 11 16 15 14 13 12 12 11 10
8 8 7 7 5 4 3 1 4 4 4 6 5 4 3 2 2 2 2 3 3 5 5 3 2 3 2 2 2 3 2 1 3 5 9 14 14 13 13 12 12 12 11
7 7 7 7 6 3 2 1 2 4 4 5 4 4 3 2 2 1 1 1 1 2 3 3 3 2 3 2 2 2 3 2 2 5 8 9 11 13 13 13 13 13 12
7 6 6 6 6 3 2 1 2 2 4 3 4 4 4 4 2 1 2 1 1 2 3 3 2 2 2 2 2 2 2 3 3 4 6 8 9 11 13 14 14 13 12
8 6 4 5 7 5 2 1 1 1 3 3 3 4 3 4 2 1 2 1 1 1 1 2 2 1 1 1 1 2 2 2 4 4 5 6 7 8 11 13 13 13 12
8 7 4 4 6 5 4 2 1 1 2 2 3 3 3 3 2 1 1 1 1 1 0 1 1 1 1 1 2 3 3 3 3 4 4 5 7 7 9 12 13 13 12
9 7 6 5 4 4 4 2 1 1 2 2 3 3 3 2 2 2 2 0 1 1 1 0 1 1 1 2 3 2 2 3 2 2 3 4 5 7 8 9 11 11 12
9 7 6 6 5 3 2 2 2 2 2 2 2 4 3 2 2 1 1 1 0 1 1 1 1 1 2 2 1 1 2 2 3 3 2 2 3 5 7 8 9 8 9
9 8 7 6 6 5 3 2 2 2 2 2 2 3 3 3 2 2 1 1 1 1 0 1 1 1 2 1 1 1 0 0 1 3 3 4 4 3 4 6 7 7 7
10 9 7 6 5 4 5 3 2 2 1 2 2 3 2 2 2 1 2 0 1 1 1 2 1 1 1 2 1 1 1 1 1 1 2 3 3 3 3 4 6 7 7
11 10 8 7 6 5 4 3 3 3 2 2 2 2 2 2 2 2 2 1 1 1 1 2 1 2 1 2 2 2 2 2 1 1 1 1 3 3 3 2 3 5 6
11 11 9 7 6 5 4 3 2 2 1 1 2 3 2 3 3 3 3 2 1 1 1 2 0 1 1 2 2 1 2 2 3 2 2 2 1 1 2 2 2 3 5
10 10 10 8 6 5 4 3 2 1 1 1 1 2 2 3 3 3 3 2 2 1 1 2 1 1 1 2 2 2 2 2 2 2 2 2 2 1 1 1 1 2 4
Wind_Direction
89 90 85 81 82 84 85 88 91 93 91 93 94 94 94 94 95 96 99 101 103 104 105 106 108 108 109 113 117 116 115 113 114 113 111 111 113 114 117 123 120 110 114
100 98 92 86 86 87 89 90 89 91 93 96 98 98 100 99 98 98 102 103 103 104 104 105 107 108 109 113 117 119 120 120 121 121 119 116 114 112 114 118 113 117 117
104 107 99 91 90 92 93 92 93 94 96 98 99 100 101 101 101 102 103 102 103 104 106 107 109 111 113 118 122 125 128 129 134 134 132 124 119 115 112 109 113 119 120
104 102 98 96 93 94 95 95 95 95 98 99 100 101 101 101 102 104 105 105 106 108 109 111 112 114 119 123 128 134 139 144 149 149 144 130 125 123 121 118 121 125 125
99 102 102 103 96 95 97 97 97 95 97 100 100 101 102 103 103 103 105 107 110 111 111 113 117 120 125 129 136 144 153 157 161 166 132 123 124 131 128 127 128 131 130
107 106 108 109 104 102 101 99 99 99 99 101 102 101 101 103 104 105 105 105 109 110 110 112 116 123 130 137 144 152 164 174 183 169 130 126 130 135 134 132 133 135 131
105 110 114 116 114 110 108 105 104 104 105 106 106 107 107 108 109 109 110 109 108 112 111 112 115 125 137 146 155 162 174 189 202 160 129 128 136 141 141 139 141 140 139
106 108 116 118 120 119 115 112 111 113 116 115 115 115 116 116 117 116 114 112 110 114 116 116 118 124 139 155 165 178 195 216 191 152 130 134 144 146 147 145 146 147 148
107 114 119 127 126 127 123 123 123 124 127 127 125 127 128 128 127 127 124 122 121 120 124 122 122 127 142 155 168 187 210 228 252 146 139 140 150 152 153 155 157 157 157
99 111 128 133 139 140 134 132 133 138 143 143 143 143 145 145 142 141 135 133 132 131 132 134 132 130 144 157 174 193 221 249 230 160 134 148 154 157 159 163 165 166 168
97 101 110 121 137 142 137 139 150 150 148 149 154 159 161 160 152 152 137 142 145 147 147 151 151 154 161 177 189 205 227 237 193 133 127 146 154 158 163 169 172 176 178
112 114 112 111 111 119 121 135 156 154 153 160 150 170 184 163 148 140 147 157 160 162 165 170 172 181 190 195 198 206 221 220 177 138 139 151 157 162 167 174 179 183 186
118 111 114 101 97 91 100 135 144 142 150 152 145 164 161 147 146 144 152 163 173 176 183 178 186 207 206 205 196 193 207 219 150 136 143 152 159 167 171 178 187 190 190
116 112 102 88 72 67 72 95 124 131 143 134 146 159 140 147 148 143 153 172 180 182 179 180 190 199 208 197 184 185 181 183 125 120 148 158 165 171 176 181 183 185 184
112 106 100 98 85 69 66 53 116 120 131 133 144 136 131 128 118 117 143 172 184 174 165 165 173 173 167 187 197 167 125 118 141 138 148 163 169 175 181 184 188 190 193
114 113 115 116 114 105 99 60 105 126 135 132 135 124 132 119 104 120 141 142 156 159 165 162 180 181 178 178 188 148 140 159 153 135 146 163 176 183 188 193 195 197 199
125 119 121 133 128 127 128 160 114 124 123 118 117 125 126 125 130 146 138 163 157 177 175 176 181 176 190 183 171 174 160 159 147 145 154 163 181 192 194 196 198 200 200
134 132 147 141 135 144 141 85 84 96 109 109 119 122 118 126 165 146 138 161 158 162 163 173 186 171 165 156 169 201 167 170 167 166 174 175 178 187 193 197 200 201 202
140 141 145 120 132 148 147 146 138 103 93 116 119 120 130 142 153 129 97 61 201 146 167 210 137 147 171 176 195 194 196 194 186 191 179 187 185 179 179 190 196 198 202
141 143 146 143 142 150 141 162 174 119 137 132 122 120 134 160 153 127 138 190 231 151 164 129 124 147 209 219 240 213 200 192 193 204 200 183 181 181 178 181 186 196 202
145 148 151 153 150 154 145 180 169 156 159 142 143 132 144 162 150 137 107 173 180 131 156 146 150 206 221 206 222 240 228 210 195 199 207 192 187 181 169 166 174 183 193
153 154 156 163 162 167 165 187 187 174 179 151 128 136 155 152 174 165 134 219 131 160 163 274 192 235 256 203 181 214 244 289 250 214 202 206 191 169 161 169 175 179 184
162 166 166 159 164 170 179 184 184 166 192 150 155 155 164 173 178 121 139 188 243 205 175 248 248 241 262 268 201 192 202 209 223 254 233 198 184 183 181 171 178 179 186
168 167 158 159 162 170 186 183 194 180 175 175 162 148 174 197 187 171 164 166 250 265 187 249 187 265 252 267 257 215 213 158 194 229 263 223 192 192 190 196 174 168 178
170 165 160 157 163 171 182 182 209 187 183 156 134 151 185 198 202 190 163 157 221 251 222 274 269 262 277 274 279 268 246 221 221 207 223 241 248 189 167 167 180 155 156
164 159 156 156 161 169 185 177 192 174 190 201 171 177 202 187 195 183 154 156 201 217 212 242 247 252 255 279 293 296 279 247 227 216 225 222 223 230 173 157 185 155 142
Height
1499 1498 1498 1498 1498 1498 1498 1498 1499 1500 1501 1502 1503 1505 1506 1507 1508 1509 1511 1512 1513 1514 1515 1517 1518 1519 1520 1522 1524 1527 1529 1532 1534 1536 1538 1540 1541 1543 1544 1545 1547 1549 1551
1500 1500 1500 1500 1500 1501 1501 1501 1502 1503 1504 1505 1507 1508 1509 1510 1510 1512 1513 1514 1516 1517 1518 1519 1521 1522 1523 1525 1527 1529 1532 1534 1536 1538 1540 1541 1543 1545 1545 1547 1549 1551 1553
1501 1501 1501 1502 1502 1503 1504 1504 1505 1506 1507 1508 1509 1510 1511 1512 1513 1514 1516 1517 1518 1520 1521 1522 1524 1525 1526 1528 1529 1532 1534 1536 1538 1540 1542 1543 1545 1547 1548 1549 1551 1553 1554
1503 1503 1503 1504 1505 1505 1506 1507 1508 1509 1510 1511 1512 1513 1514 1515 1516 1517 1518 1519 1521 1522 1523 1524 1526 1527 1528 1530 1532 1534 1536 1538 1540 1542 1544 1545 1547 1549 1550 1551 1553 1555 1556
1504 1504 1505 1506 1506 1507 1508 1509 1510 1511 1512 1513 1514 1515 1516 1517 1518 1519 1520 1522 1523 1524 1525 1526 1527 1528 1530 1531 1533 1535 1537 1539 1541 1544 1546 1547 1548 1550 1551 1553 1554 1556 1558
1506 1506 1507 1507 1508 1509 1510 1511 1512 1513 1514 1515 1516 1517 1518 1519 1520 1521 1523 1523 1525 1526 1526 1527 1528 1529 1530 1532 1534 1536 1538 1541 1543 1545 1547 1548 1550 1551 1553 1554 1556 1557 1558
1508 1508 1509 1509 1510 1511 1511 1512 1513 1514 1515 1517 1518 1519 1520 1521 1522 1523 1524 1525 1526 1527 1528 1528 1528 1529 1530 1532 1535 1537 1539 1541 1544 1546 1548 1549 1550 1552 1553 1555 1557 1558 1559
1510 1510 1510 1511 1512 1512 1513 1514 1515 1516 1517 1518 1519 1520 1522 1523 1524 1525 1526 1527 1527 1528 1529 1529 1528 1527 1528 1531 1535 1538 1540 1543 1545 1547 1548 1550 1551 1553 1554 1556 1557 1559 1560
1512 1512 1512 1513 1513 1514 1514 1515 1516 1517 1518 1520 1521 1522 1523 1524 1525 1526 1527 1528 1529 1529 1530 1530 1529 1528 1529 1532 1536 1538 1541 1543 1545 1548 1549 1550 1551 1553 1554 1556 1558 1559 1560
1514 1514 1514 1515 1515 1515 1515 1516 1517 1518 1519 1521 1522 1524 1525 1526 1527 1528 1528 1529 1530 1530 1531 1531 1531 1531 1532 1534 1537 1540 1542 1544 1546 1548 1549 1550 1551 1553 1555 1556 1558 1559 1560
1516 1516 1517 1517 1517 1517 1517 1516 1516 1518 1520 1522 1523 1525 1526 1527 1528 1529 1530 1530 1531 1532 1532 1533 1534 1534 1535 1537 1539 1541 1543 1545 1547 1548 1549 1550 1551 1553 1554 1556 1557 1559 1560
1517 1518 1518 1518 1519 1518 1517 1516 1516 1519 1521 1523 1525 1526 1528 1529 1530 1530 1531 1531 1532 1533 1534 1535 1536 1536 1537 1538 1540 1542 1543 1545 1547 1548 1549 1550 1552 1553 1554 1555 1557 1558 1559
1518 1519 1519 1520 1520 1519 1518 1517 1518 1520 1523 1525 1527 1528 1529 1530 1531 1531 1531 1532 1533 1534 1535 1536 1537 1538 1539 1540 1541 1542 1544 1545 1547 1548 1549 1550 1551 1553 1554 1555 1556 1557 1558
1519 1520 1520 1521 1521 1521 1520 1520 1521 1523 1525 1527 1528 1529 1530 1531 1531 1532 1532 1533 1533 1535 1536 1537 1538 1538 1539 1541 1542 1543 1544 1546 1547 1548 1549 1550 1551 1552 1553 1554 1555 1555 1557
1520 1521 1521 1521 1521 1522 1522 1523 1525 1526 1527 1528 1529 1530 1531 1532 1532 1533 1533 1533 1535 1536 1537 1538 1538 1540 1541 1541 1542 1543 1544 1546 1547 1547 1548 1549 1550 1551 1552 1553 1553 1554 1555
1521 1522 1522 1522 1523 1523 1524 1525 1527 1528 1529 1530 1530 1531 1532 1532 1533 1533 1534 1534 1535 1536 1537 1538 1539 1540 1541 1541 1542 1543 1544 1545 1546 1547 1547 1548 1549 1550 1550 1551 1552 1553 1554
1521 1522 1522 1523 1524 1524 1526 1527 1528 1529 1530 1531 1531 1532 1532 1532 1533 1533 1534 1534 1535 1536 1537 1538 1539 1539 1540 1541 1542 1542 1544 1544 1546 1546 1547 1547 1548 1549 1549 1549 1550 1551 1552
1521 1522 1523 1525 1524 1525 1526 1528 1529 1530 1531 1531 1532 1532 1532 1532 1533 1534 1534 1535 1536 1537 1537 1538 1538 1539 1540 1540 1541 1542 1543 1544 1544 1545 1546 1547 1547 1547 1547 1547 1548 1549 1550
1521 1522 1523 1524 1525 1526 1527 1528 1529 1530 1531 1531 1532 1532 1532 1533 1533 1534 1534 1535 1536 1536 1537 1537 1538 1538 1539 1540 1541 1541 1542 1543 1544 1544 1545 1545 1546 1546 1546 1546 1547 1547 1548
1520 1522 1523 1524 1525 1526 1527 1528 1529 1530 1531 1531 1532 1532 1532 1533 1533 1534 1534 1534 1536 1536 1536 1537 1537 1537 1538 1539 1540 1540 1541 1542 1543 1543 1544 1544 1544 1545 1545 1545 1545 1546 1547
1520 1521 1522 1524 1524 1526 1527 1528 1529 1530 1530 1531 1532 1532 1532 1533 1533 1533 1534 1534 1535 1535 1536 1536 1536 1537 1537 1538 1538 1539 1540 1540 1541 1542 1542 1542 1543 1543 1544 1544 1544 1544 1544
1519 1520 1521 1523 1524 1525 1526 1527 1529 1529 1530 1531 1531 1531 1532 1532 1533 1533 1533 1533 1534 1534 1534 1535 1535 1535 1536 1537 1537 1538 1538 1540 1539 1540 1540 1541 1542 1542 1542 1542 1542 1542 1542
1518 1519 1521 1522 1523 1525 1526 1527 1529 1529 1530 1530 1531 1531 1531 1532 1532 1533 1532 1532 1533 1533 1533 1534 1534 1534 1535 1536 1536 1537 1537 1537 1538 1538 1538 1539 1540 1540 1540 1540 1540 1541 1541
1516 1518 1520 1521 1522 1524 1525 1527 1528 1528 1529 1529 1530 1530 1531 1531 1532 1532 1532 1532 1532 1532 1532 1533 1533 1533 1534 1534 1535 1535 1536 1536 1537 1537 1537 1537 1538 1538 1539 1539 1539 1539 1539
1515 1517 1518 1520 1521 1522 1524 1525 1526 1527 1528 1529 1529 1529 1530 1530 1531 1531 1531 1531 1531 1531 1531 1531 1532 1532 1532 1532 1533 1534 1534 1534 1535 1535 1535 1536 1536 1537 1537 1537 1537 1537 1536
1513 1515 1517 1518 1520 1521 1523 1524 1525 1526 1527 1528 1528 1528 1529 1529 1530 1530 1530 1530 1530 1530 1530 1531 1531 1531 1531 1531 1532 1532 1532 1533 1533 1533 1533 1534 1534 1535 1535 1535 1535 1535 1534